Location: Unspecified
(0.0000°N, 0.0000°E)
Time: 17:26:31
(UTC+00:00)

STARLINK-1830 - Visible Passes

Search period start: 16 April 2026 00:00
Search period end: 26 April 2026 00:00
Orbit: 373 x 381 km, 53.0° (Epoch: 15 April)

Date Brightness Start Highest point End Pass type
(mag) Time Alt. Az. Time Alt. Az. Time Alt. Az.
22 Apr 5.2 18:59:30 10° NNE 19:00:14 12° NE 19:00:14 12° NE visible
23 Apr 4.4 19:31:36 10° NW 19:33:35 35° WNW 19:33:35 35° WNW visible
24 Apr 4.1 18:30:01 10° N 18:32:35 24° NE 18:34:45 12° ESE visible
25 Apr 4.6 19:03:04 10° WNW 19:05:48 29° SW 19:07:54 14° S visible
